www.pogodaiklimat.ru

Погода и климат >> Архив погоды >> Пакистан >> Pad Idan


ПОГОДА в Pad Idan

  • Прогноз погоды в Pad Idan
  • Монитор погоды в Pad Idan
  • Климат города

АРХИВ ПОГОДЫ в Pad Idan

Время (UTC), дата Ветер
(напр.,м/с)
 
Видим.   Явления Облачность Т
(С)
Тd
(С)
f
(%)
Тe
(С)
Тes
(С)
Комфортность P
(гПа)
Po
(гПа)
Тmin
(С)
Tmax
(С)
R
(мм)
R24
(мм)
S
(см)
21 8.12 штиль 0 4000 м ясно +15.0 +11.8 81 +15 +15 1013.0 1013.0
00 9.12 штиль 0 4000 м ясно +14.0 +11.1 83 +14 +14 1012.0 1012.0
03 9.12 штиль 0 1000 м ясно +14.5 +11.7 83 +14 +15 1014.1 1014.0 +13.0
06 9.12 З 1 1000 м дымка ясно +20.0 +13.0 64 +23 +32 комфорт 1014.8 1015.0
09 9.12 З 1 2000 м мгла ясно +25.0 +13.1 48 +27 +36 жарко 1012.0 1012.0
12 9.12 С 1 2000 м мгла ясно +25.0 +13.1 48 +27 +28 жарко 1010.4 1005.0 +25.5
15 9.12 С 1 2000 м мгла ясно +20.5 +11.8 57 +24 +24 комфорт 1012.1 1000.0
18 9.12 С 1 2000 м мгла ясно +19.0 +13.8 72 +22 +22 комфорт 1013.0 1007.4
21 9.12 штиль 0 2000 м мгла ясно +17.0 +13.5 80 +17 +17 1012.5 1000.0
00 10.12 штиль 0 2000 м мгла ясно +15.0 +13.5 91 +15 +15 1011.7 1006.1
03 10.12 штиль 0 2000 м мгла ясно +15.5 +11.8 79 +15 +16 1013.0 1007.4 +13.1
06 10.12 С 1 4000 м ясно +20.5 +13.6 65 +24 +33 комфорт 1014.3 1014.0
09 10.12 С 1 4000 м ясно +23.5 +15.2 60 +26 +36 жарко 1011.7 1011.0
12 10.12 штиль 0 4000 м ясно +23.5 +17.1 67 +27 +28 душно 1009.6 1004.3 +25.0
15 10.12 штиль 0 4000 м ясно +18.5 +12.3 67 +19 +19 1010.5 1000.0
18 10.12 штиль 0 4000 м ясно +17.0 +13.5 80 +17 +17 1014.0 1000.0
21 10.12 штиль 0 500 м дымка ясно +15.0 +12.3 84 +15 +15 1012.9 1002.7
00 11.12 штиль 0 500 м дымка ясно +13.0 +11.1 88 +12 +12 1012.1 1006.7
03 11.12 СЗ 1 500 м дымка ясно +14.0 +12.2 89 +15 +16 1015.7 1010.3 +12.5
06 11.12 С 1 4000 м ясно +18.5 +12.3 67 +20 +29 1018.4 1012.8
09 11.12 С 1 4000 м ясно +23.0 +14.6 59 +27 +36 душно 1015.3 1000.0
12 11.12 С 1 4000 м ясно +24.0 +15.8 60 +27 +28 жарко 1014.7 997.9 +25.1
15 11.12 С 1 4000 м ясно +18.0 +12.7 71 +20 +20 1015.7 1000.0
18 11.12 С 1 4000 м ясно +16.0 +12.4 79 +17 +17 1018.1 1000.0
21 11.12 С 1 4000 м ясно +14.0 +10.2 78 +14 +14 1016.8 1017.0
00 12.12 С 1 4000 м ясно +12.5 +10.6 88 +12 +12 1016.6 1017.0
03 12.12 С 1 4000 м ясно +13.0 +10.1 83 +14 +14 1019.3 1000.0 +12.1
06 12.12 С 1 4000 м ясно +18.0 +11.7 67 +20 +29 1021.3 1000.0
09 12.12 С 1 4000 м ясно +21.0 +13.2 61 +25 +34 комфорт 1018.2 1000.0
12 12.12 С 1 4000 м ясно +21.0 +12.2 57 +25 +25 комфорт 1013.3 1012.0 +22.1
15 12.12 С 1 4000 м ясно +17.5 +10.0 61 +19 +19 1018.9 1000.0
18 12.12 С 1 4000 м ясно +15.0 +10.3 73 +16 +16 1020.3 996.0
21 12.12 штиль 0 4000 м ясно +13.0 +10.1 83 +13 +13 1019.1 1000.0
00 13.12 штиль 0 1000 м туман ясно +10.5 +9.5 94 +10 +10 1017.9 1012.2
03 13.12 штиль 0 1000 м туман ясно +11.0 +7.9 81 +10 +11 1019.8 1014.1 +9.5
06 13.12 4000 м ясно +19.0 +11.8 63 1022.7 1004.9
09 13.12 СВ 1 4000 м ясно +22.0 +12.4 54 +24 +34 комфорт 1018.8 1000.0
12 13.12 штиль 0 4000 м ясно +21.5 +11.7 54 +24 +24 комфорт 1018.9 1014.5 +23.5
15 13.12 штиль 0 4000 м ясно +17.0 +10.5 66 +17 +17 1020.8 1009.7
18 13.12 штиль 0 4000 м ясно +13.5 +9.6 77 +13 +13 1021.4 1000.0
21 13.12 штиль 0 1000 м дымка ясно +12.0 +10.1 88 +11 +11 1020.1 1000.0
00 14.12 штиль 0 1000 м дымка ясно +12.0 +10.1 88 +11 +11 1018.7 1013.3
03 14.12 штиль 0 1000 м дымка ясно +10.0 +9.0 93 +9 +10 1023.5 1018.1 +9.1
06 14.12 С 1 4000 м ясно +16.5 +9.9 65 +18 +27 1026.6 1000.0
09 14.12 С 1 4000 м ясно +19.5 +10.3 55 +22 +31 комфорт 1024.5 1000.0
12 14.12 С 1 4000 м ясно +21.0 +10.0 49 +24 +25 комфорт 1022.8 1000.0 +22.1
15 14.12 С 1 4000 м ясно +17.5 +11.1 66 +19 +19 1023.5 1000.0
18 14.12 С 1 4000 м ясно +15.0 +9.2 68 +16 +16 1024.5 1000.0
21 14.12 С 1 4000 м ясно +13.5 +9.6 77 +15 +15 1022.5 1000.0
00 15.12 С 1 4000 м ясно +11.0 +7.9 81 +12 +12 1022.0 1000.0
03 15.12 штиль 0 1000 м дымка ясно +11.5 +7.4 76 +11 +12 1022.5 1000.0 +10.1
06 15.12 СВ 1 1000 м мгла ясно +17.5 +12.1 71 +19 +29 1025.1 1000.0
09 15.12 С 1 1000 м мгла ясно +21.5 +11.7 54 +24 +33 комфорт 1022.8 1000.0
12 15.12 С 1 1000 м мгла ясно +20.0 +8.6 48 +23 +23 комфорт 1021.4 1015.9 +22.1
15 15.12 С 1 1000 м мгла ясно +17.0 +8.2 56 +19 +19 1023.0 1000.0

 

Местоположение метеостанции Pad Idan (Пакистан): широта 26.85 долгота 68.13 высота над уровнем моря 47 м.

В архиве по умолчанию представлена погода в Pad Idan за последнюю неделю. Архивные данные за месяц целиком и за предыдущие месяцы, начиная с января 2011 года, Вы можете получить, выбрав интересующий диапазон дат из раскрывающегося списка и нажав кнопку "Ввод!".


*Определитесь, кто Вы:
робот инопланетянин человек

Внимание! Время в таблицах - всемирное. Для получения местного времени необходимо прибавить поправку, которая в Pad Idan равна 5 ч.

Смотрите также архив погоды в соседних городах и на ближайших метеорологических станциях:

Погода в Nawabshah (Пакистан) (71 км)
Погода в Rohri (Пакистан) (119 км)
Погода в Jacobabad (Пакистан) (165 км)
Погода в Hyderabad (Пакистан) (166 км)
Погода в Khuzdar (Пакистан) (184 км)
Погода в Sakrand (Пакистан) (192 км)
Погода в Chhor (Пакистан) (221 км)
Погода в Karachi (Пакистан) (239 км)
Погода в Badin (Пакистан) (259 км)
Погода в Jaisalmer (Rajasthan, Индия) (277 км)

Пояснения к столбцам:

Ветер - указаны скорость ветра в м/с - средняя за 10 мин, порывы в срок и между сроками (в фигурных скобках) и направление, откуда дует ветер: С - северный, СВ - северо-восточный, В - восточный, ЮВ - юго-восточный, Ю - южный, ЮЗ - юго-западный, З - западный, СЗ - северо-западный.
Видимость - горизонтальная дальность видимости в метрах или километрах. При видимости от 1 до 10 км при отсутствии осадков обычно наблюдается дымка, при ухудшении видимости до 1 км и менее - туман. В сухую погоду видимость может ухудшаться дымом, пылью или мглою.
Явления - указаны атмосферные явления, наблюдавшиеся в срок или в последний час перед сроком; фигурными скобками обозначены явления, наблюдавшиеся между сроками (за 1-3 часа до срока); квадратными скобками обозначены град или гололедные отложения с указанием их диаметра в мм.
Облачность - указаны через наклонную черту общая и нижняя облачность в баллах и высота нижней границы облаков в метрах; квадратными скобками обозначены формы облаков: Ci - перистые, Cs - перисто-слоистые, Cc - перисто-кучевые, Ac - высококучевые, As - высокослоистые, Sc - слоисто-кучевые, Ns - слоисто-дождевые, Cu - кучевые, Cb - кучево-дождевые. Подробнее классификацию облаков см. в Атласе облаков (PDF).
T - Температура воздуха - температура, измеренная на высоте 2 м над землей.
Td - Температура точки росы - температура, при понижении до которой содержащийся в воздухе водяной пар достигнет насыщения.
f - Относительная влажность воздуха - влажноcть воздуха, измеренная на высоте 2 м над землей.
Te - Эффективная температура - температура, которую ощущает одетый по сезону человек в тени. Характеристика душности погоды. При расчете учитывается влияние влажности воздуха и скорости ветра на теплоощущения человека.
Tes - Эффективная температура на солнце - температура, которую ощущает человек, с поправкой на солнечный нагрев. Характеристика знойности погоды. Зависит от высоты солнца над горизонтом, облачности и скорости ветра. Ночью, в пасмурную погоду, а также при ветре 12 м/с и более поправка равна нулю.
P - Атмосферное давление - приведенное к уровню моря атмосферное давление.
Po - Атмосферное давление - измеренное на уровне метеостанции атмосферное давление.
Tmin - Минимальная температура - минимум температуры воздуха на высоте 2 м над землей.
Tmax - Максимальная температура - максимум температуры воздуха на высоте 2 м над землей.
R - Количество осадков - Количество выпавших осадков за период времени, мм. При наведении курсора мыши на число - период времени, за который выпало указанное количество осадков.
R24 - Количество осадков - Количество выпавших осадков за 24 часа, мм.
S - Снежный покров - Высота снежного покрова, см. При наведении курсора мыши на число - состояние снежного покрова и степень покрытия местности в баллах.